Location: *
(32.3758°S, 63.1185°E)
Time: 08:03:04
(UTC+00:00)

ARIANE 1 DEB - Visible Passes

Search period start: 26 May 2024 00:00
Search period end: 05 June 2024 00:00
Orbit: 739 x 772 km, 98.2° (Epoch: 25 May)

Date Brightness Start Highest point End Pass type
(mag) Time Alt. Az. Time Alt. Az. Time Alt. Az.
26 May ? 00:02:26 10° ENE 00:05:40 18° ESE 00:08:56 10° SSE visible
26 May ? 01:39:26 10° N 01:44:06 42° W 01:48:51 10° SSW visible
26 May ? 13:51:09 10° SSE 13:56:19 87° WSW 14:01:26 10° NNW visible
27 May ? 00:59:33 10° NNE 01:04:29 73° ESE 01:09:30 10° S visible
27 May ? 13:11:57 10° SSE 13:16:40 36° E 13:21:20 10° NNE visible
27 May ? 14:51:20 10° SSW 14:55:11 22° WSW 14:59:02 10° WNW visible
28 May ? 00:20:54 10° NE 00:25:05 28° ESE 00:29:18 10° SSE visible
28 May ? 01:59:42 10° NNW 02:03:48 26° W 02:07:56 10° SW visible
28 May ? 14:10:51 10° S 14:15:52 54° WSW 14:20:51 10° NNW visible
28 May ? 23:44:39 10° E 23:45:54 11° ESE 23:47:11 10° SE visible
29 May ? 01:19:07 10° N 01:24:03 69° W 01:29:04 10° SSW visible
29 May ? 13:31:14 10° SSE 13:36:18 58° E 13:41:21 10° N visible
29 May ? 15:12:03 10° SW 15:14:34 14° WSW 15:17:05 10° W visible
30 May ? 00:39:50 10° NE 00:44:31 44° ESE 00:49:18 10° S visible
30 May ? 14:30:44 10° S 14:35:20 34° WSW 14:39:55 10° NW visible
31 May ? 00:01:58 10° ENE 00:05:13 18° ESE 00:08:32 10° SSE visible
31 May ? 01:39:00 10° N 01:43:39 41° W 01:48:25 10° SSW visible
31 May ? 13:50:43 10° SSE 13:55:53 87° WSW 14:01:02 10° NNW visible
01 Jun ? 00:59:05 10° NNE 01:04:01 73° ESE 01:09:03 10° S visible
01 Jun ? 13:11:30 10° SSE 13:16:13 36° E 13:20:54 10° NNE visible
01 Jun ? 14:50:53 10° SSW 14:54:45 22° WSW 14:58:36 10° WNW visible
02 Jun ? 00:20:25 10° NE 00:24:36 28° ESE 00:28:52 10° SSE visible
02 Jun ? 01:59:13 10° NNW 02:03:19 26° W 02:07:28 10° SW visible
02 Jun ? 14:10:23 10° S 14:15:24 54° WSW 14:20:24 10° NNW visible
02 Jun ? 23:44:05 10° E 23:45:25 11° ESE 23:46:45 10° SE visible
03 Jun ? 01:18:37 10° N 01:23:34 69° W 01:28:35 10° SSW visible
03 Jun ? 13:30:44 10° SSE 13:35:50 58° E 13:40:53 10° N visible
03 Jun ? 15:11:33 10° SW 15:14:05 14° WSW 15:16:36 10° W visible
04 Jun ? 00:39:19 10° NE 00:44:00 45° ESE 00:48:49 10° S visible
04 Jun ? 14:30:14 10° S 14:34:51 34° WSW 14:39:26 10° NW visible
